Regional Weather Roundup
Issued by NWS Newport/Morehead, NC

Current Version | Previous Version | Graphics & Text | Print | Product List | Glossary Off
Versions: 1 2 3 4 5 6 7 8 9 10 11 12 13 14 15 16 17 18 19 20 21 22 23 24 25 26 27 28 29 30 31 32 33 34 35 36 37 38 39 40 41 42 43 44 45 46 47 48 49 50

000
ASUS42 KMHX 042112
RWRMHX
WEATHER ROUNDUP FOR EASTERN NORTH CAROLINA
NATIONAL WEATHER SERVICE NEWPORT/MOREHEAD CITY NC
400 PM EST SUN DEC 04 2016

NOTE: "FAIR" INDICATES FEW OR NO CLOUDS BELOW 12,000 FEET
WITH NO SIGNIFICANT WEATHER AND/OR OBSTRUCTIONS TO VISIBILITY

NCZ015>017-031-032-045>047-102-103-042200-
NORTH COAST

CITY           SKY/WX    TMP DP  RH WIND       PRES   REMARKS
EDENTON        CLOUDY    50  38  62 CALM      30.25S
ELIZABETH CITY CLOUDY    49  34  56 CALM      30.24S
KITTY HAWK     CLOUDY    48  39  71 N3        30.23R
MANTEO         CLOUDY    48  40  72 N6        30.24S

$$

NCZ045>047-081-094-103-104-042200-
CENTRAL COAST

CITY           SKY/WX    TMP DP  RH WIND       PRES   REMARKS
FRISCO         CLOUDY    50  41  71 VRB6      30.24R

$$

NCZ095-097-098-100-101-042200-
SOUTHERN COAST

CITY           SKY/WX    TMP DP  RH WIND       PRES   REMARKS
BEAUFORT       LGT RAIN  50  40  68 VRB6      30.22S
CEDAR ISLAND   NOT AVBL
JACKSONVILLE   LGT RAIN  47  45  93 NE5       30.20F
PINEY ISLAND   CLOUDY   N/A N/A N/A NE8       30.22F
WILMINGTON     CLOUDY    46  44  93 N9        30.20F


$$

NCZ011>013-027>030-043-044-078>080-089-090>093-098-042200-
COASTAL PLAIN

CITY           SKY/WX    TMP DP  RH WIND       PRES   REMARKS
AHOSKIE        MOCLDY    46  34  63 CALM      30.23F
CLINTON        RAIN      44  43  98 CALM      30.24R
ELIZABETHTOWN  RAIN      44  44  98 N5        30.20S
GOLDSBORO      CLOUDY    48  40  73 CALM      30.21S
GREENVILLE     MOCLDY    48  36  61 CALM      30.24S
HAVELOCK       CLOUDY    51  41  68 NE5       30.23R
KENANSVILLE    LGT RAIN  45  43  93 CALM      30.23S FOG
KINSTON        CLOUDY    48  37  66 CALM      30.23S
NEW BERN       CLOUDY    50  39  66 NE3       30.24R
RICHLANDS      LGT RAIN  45  43  93 N7        30.21F
ROCKY MOUNT    CLOUDY    47  36  65 CALM      30.22F
WASHINGTON     CLOUDY    49  38  64 NE3       30.23F
WHITEVILLE     DRIZZLE   46  41  83 NE5       30.19R

$$

AMZ130-135-150-152-154-156-158-170-250-252-270-ANZ085-086-088-633-658-670-042200-
MARINE OBSERVATIONS

STATION/POSITION TIME  TEMP    WIND        PRES    WAVE   SWELL
                       AIR SEA DIR/SP/G            HT/PER HT/PER
                 (UTC) (F)     (DEG/KT/KT) (MB)    (FT/S) (FT/S)
CHESAPEAKE LIGHT NOT AVBL
64 E VA BEACH    2050   49 60  340/ 10/ 14 1023.5    4/ 7   3/ 7
DUCK             2042   48 55   10/  3/  6 1023.5
2 E DUCK         NOT AVBL
OREGON INLET     2042   49 54  360/  5/  9 1023.6
13E OREGON INLT  2100      56                N/A     4/ 7   3/ 7
HATTERAS CG      2042   50 58   20/  8/ 10 1023.4
DIAMOND BUOY     2050   55 75   20/ 10/ 16 1023.5    4/ 8   3/ 8
CAPE LOOKOUT     2100   50      30/ 10/ 12 1022.8
BEAUFORT LAB     2042   50 55   40/  6/  8 1021.9
30 SE NEW RVR IN 2008   55 74   40/ 14/ 17 1022.6
30 SE NEW RVR IN NOT AVBL
27 SE WRIGHTSVLE 2008   55 68   50/ 16/ 21 1021.9
5 SE WRIGHTSVLE  2008   50 63   40/ 12/ 17 1022.2
225 S CAPE HAT   2050   66 74   80/  4/  6 1021.3    4/ 9   5/ 9
41 SE CHARLESTON 2050   70 75  120/ 12/ 17 1018.9    3/ 5   2/ 8

$$



USA.gov is the U.S. government's official web portal to all federal, state and local government web resources and services.